Temp_Advection
nan nan nan nan nan nan nan nan nan nan nan nan nan nan nan nan nan nan nan nan nan nan nan nan nan nan nan nan nan nan nan nan nan nan nan nan nan nan nan nan nan nan nan
nan 3 2 -2 -1 0 -0 0 0 0 1 -0 -0 0 0 1 1 -0 -0 0 -0 -0 1 0 -0 -0 -0 0 0 0 0 0 -0 -0 0 0 0 0 -0 -0 -0 -0 nan
nan 0 -0 -1 -0 -0 0 1 1 0 0 0 -0 -0 0 -0 -0 -0 -0 0 0 1 0 0 0 0 -0 -0 -0 -0 0 0 0 -0 0 0 0 0 -0 0 -0 -0 nan
nan 1 -0 -0 0 0 1 1 0 0 0 0 -0 -0 -0 -0 -0 -0 -0 -0 0 0 0 0 0 -0 0 0 0 -0 -0 0 0 0 -0 0 0 0 -0 -0 0 0 nan
nan -0 -0 0 0 1 0 0 0 0 0 0 -0 -0 -0 -0 0 0 -0 -0 -0 0 1 -0 -1 -0 0 1 1 0 0 -0 -0 0 0 -0 0 0 0 -0 0 0 nan
nan 0 0 0 0 0 0 0 0 0 0 -0 -0 0 0 0 0 1 0 -0 -0 -0 -0 -0 -0 -0 -0 0 1 0 -0 -1 0 0 -0 -0 0 0 0 0 0 -0 nan
nan -0 -0 -0 -0 0 0 0 0 0 -0 -0 -0 0 -0 -0 0 0 0 -0 -0 0 0 -0 0 -0 0 0 -0 -0 0 -0 -0 0 -0 0 0 0 0 0 0 0 nan
nan 0 0 0 -0 -0 0 0 0 0 -0 -0 -0 0 -0 -0 0 0 0 -0 0 0 0 0 -0 -0 -0 -0 0 -0 -1 -1 -0 0 0 0 0 0 0 0 0 -0 nan
nan 0 0 0 0 -0 0 0 0 0 -0 -0 0 0 -0 -0 -0 -0 -0 -0 -0 1 1 0 0 -0 0 -0 0 1 -0 -1 -0 -0 -0 -0 0 0 0 0 0 -0 nan
nan 0 0 -0 -0 -0 -0 -0 -0 0 -0 -0 -1 -0 -0 -0 0 0 0 -0 -0 0 1 1 0 -0 0 0 -0 -0 0 -0 -0 -0 -0 -0 -0 1 1 0 0 0 nan
nan 0 0 -0 -0 -0 -0 -0 -0 -0 -0 -0 -0 -0 -1 -1 0 1 0 -0 -1 -1 -1 0 1 0 -0 0 0 -0 -0 -0 0 0 -0 -0 -0 -0 -0 1 1 0 nan
nan -0 -0 -0 -0 -0 -1 -0 -0 -1 -1 -0 -0 -0 0 -0 -0 -0 1 0 -0 -1 -2 -1 0 1 -0 -0 -0 -0 -0 0 0 1 1 1 0 -0 0 0 0 0 nan
nan 0 -0 -0 -0 0 -0 -1 -1 -1 -1 -1 -1 -1 -1 -0 -0 -0 1 0 0 -0 -1 -1 -0 0 0 -0 -0 -0 -0 -0 -0 -0 -0 -0 1 2 1 -0 0 0 nan
nan -0 -0 -1 -0 0 0 -0 -0 -1 -1 -1 -1 -1 -1 -1 -1 -0 -0 -1 -0 -0 -1 -0 -1 -1 -0 0 0 -1 -0 -0 0 0 -0 -1 -1 0 1 1 -0 -0 nan
nan -0 -0 -0 -0 -0 0 0 -0 -0 -0 -0 -0 -0 -1 -2 -1 0 -0 -1 -0 -1 -0 -0 -1 -1 -1 -1 -0 -0 -0 -0 0 0 -0 -1 -1 -0 1 0 -0 -0 nan
nan 0 0 -0 -0 -0 -0 -0 -0 -0 -0 -0 0 -0 -0 -0 -1 -1 -0 -0 -1 -1 -0 -0 -1 -1 -1 -1 -1 -0 0 -0 0 0 -0 -0 -0 -0 0 0 0 -0 nan
nan 0 -0 -0 -0 -0 -0 -1 -1 -1 -0 -0 -0 -0 0 0 -0 0 -0 -1 -1 -0 -1 -1 -1 -1 -0 -0 -0 -1 -0 0 1 0 -1 -0 -0 -0 0 0 0 0 nan
nan 0 0 -0 -0 -0 0 0 0 -0 -1 -1 -0 -0 -0 0 0 0 0 -1 -1 -1 -1 -1 -1 -1 -1 -1 -0 -0 -0 1 0 -0 -0 -0 0 -0 0 1 0 1 nan
nan -0 0 -0 -0 -0 -0 -0 -0 -0 -0 -2 -2 -1 -0 0 0 0 0 -0 -1 -1 -1 -1 -1 -1 -1 -0 -0 -0 -0 0 0 -0 -1 -0 1 -0 -0 1 1 1 nan
nan 0 0 -0 -1 -1 -1 -1 -1 -1 -1 -1 -3 -4 -2 -1 -2 -0 0 0 -0 -1 -1 -1 -0 -0 -0 -0 -0 -0 -0 -0 -0 0 0 0 0 -0 -1 1 1 0 nan
nan 0 0 -0 -0 -0 0 -0 1 0 -1 -1 -1 -1 -1 -1 -2 -3 -2 -0 0 -0 -0 -1 -0 -0 -1 -0 -0 -0 -0 -0 -0 -0 0 1 1 0 -0 1 1 0 nan
nan -0 -1 -0 -0 -1 3 2 -0 -1 -1 -1 -2 -1 -1 -1 -1 -1 -1 -1 -1 -1 -1 -1 -0 -0 -0 -1 -1 0 0 -0 -0 0 1 0 0 0 0 1 0 0 nan
nan -0 -0 -1 0 1 0 1 1 0 -0 -0 -1 -1 -2 -2 -2 -1 -1 -1 -1 -1 -0 -0 -0 -1 -1 -0 -0 -0 -0 -0 0 0 -0 0 0 -0 -0 0 1 0 nan
nan -0 -0 0 -1 -1 -0 0 0 1 0 0 0 -0 -1 -1 -2 -2 -1 -1 -1 -0 -0 -0 -1 -1 -0 -0 -1 -0 -0 0 0 0 0 -0 -1 -1 -0 0 1 1 nan
nan 0 -0 -0 -0 -0 -0 1 0 0 0 1 0 0 -0 -1 -1 -1 -2 -1 -0 -0 -1 -1 -1 -1 -0 -1 -0 0 -0 0 0 -0 -0 -0 -1 -0 0 1 2 1 nan
nan nan nan nan nan nan nan nan nan nan nan nan nan nan nan nan nan nan nan nan nan nan nan nan nan nan nan nan nan nan nan nan nan nan nan nan nan nan nan nan nan nan nan
Wind_Speed
17 34 37 38 34 26 29 27 26 29 26 29 31 31 29 32 31 37 24 16 21 22 22 22 23 21 19 17 17 16 17 16 19 17 14 12 13 11 8 10 10 9 7
18 31 33 31 27 30 29 14 11 12 19 23 23 22 26 25 14 5 12 12 20 22 22 22 24 22 23 21 20 19 17 16 17 17 15 13 13 12 11 12 11 10 9
26 28 26 24 22 23 21 20 18 15 17 18 17 15 16 13 8 4 9 15 13 19 22 23 23 23 25 25 25 22 19 16 16 18 15 14 13 13 11 11 12 10 8
16 20 22 17 18 19 21 21 17 17 17 17 17 16 17 15 16 15 15 12 15 22 22 24 26 24 24 26 25 25 21 17 17 18 16 14 14 12 12 11 12 11 10
26 22 19 18 17 20 21 14 12 14 17 18 18 19 18 19 19 20 20 23 26 28 31 30 26 26 24 25 24 23 22 18 19 16 17 15 14 14 14 12 12 11 12
8 9 7 6 11 12 14 15 14 16 18 16 15 15 17 22 23 23 25 26 28 29 30 27 23 20 19 18 16 21 23 21 20 16 16 17 14 11 12 13 12 14 15
4 8 9 10 11 14 16 17 18 18 16 17 18 17 20 21 22 24 23 24 20 15 13 18 20 18 15 15 16 18 21 18 17 15 18 18 17 10 10 13 15 15 16
8 6 7 7 7 8 10 12 14 15 16 17 18 20 22 18 19 20 20 18 13 12 17 19 12 8 7 9 13 17 19 24 20 19 19 18 18 14 13 14 14 17 17
8 9 9 10 10 10 10 10 9 12 12 14 16 18 23 25 20 17 18 21 18 17 16 16 10 7 6 9 15 18 20 23 17 14 13 12 10 13 16 19 21 19 18
6 6 6 8 10 10 11 13 13 15 17 19 21 22 22 22 19 20 19 23 26 24 20 15 13 13 16 12 12 8 16 22 14 14 16 11 10 14 15 18 21 24 23
6 9 13 15 16 17 18 19 20 22 24 25 27 27 26 26 24 22 23 27 28 29 26 21 16 16 13 14 16 17 19 21 19 18 19 17 16 15 18 16 21 25 24
17 19 22 22 22 22 23 24 24 24 26 29 30 32 32 31 30 30 28 27 27 28 29 27 25 22 19 16 16 13 10 9 13 19 24 26 22 21 21 23 17 23 26
20 22 23 25 26 25 25 26 27 28 28 29 30 32 34 34 33 32 33 31 30 29 30 30 30 29 26 23 21 19 13 10 12 15 19 21 27 28 25 26 28 25 24
22 25 28 29 27 25 25 25 26 26 26 27 29 30 30 31 31 29 28 27 30 29 29 30 31 33 33 31 27 25 22 17 15 13 17 22 25 26 27 23 24 25 25
26 29 29 28 28 29 28 27 27 27 25 25 26 28 31 36 35 31 27 26 24 22 22 25 27 28 29 33 33 30 29 23 16 13 18 23 25 27 28 23 22 24 26
29 30 30 31 31 32 33 35 32 32 31 31 33 34 36 35 33 36 38 35 29 27 30 32 34 32 31 28 25 28 29 27 20 16 19 23 26 25 26 24 22 24 26
30 32 34 34 35 35 36 35 38 38 38 40 41 40 36 35 36 33 31 34 36 31 31 30 31 33 36 34 30 24 29 30 22 22 24 24 26 24 25 24 24 22 24
21 20 19 20 24 27 28 29 31 34 37 37 35 37 34 30 28 29 32 32 32 35 32 30 32 29 31 35 35 32 29 29 33 33 32 28 29 26 25 25 23 23 21
22 23 23 26 28 26 31 36 38 40 43 45 43 42 40 37 36 34 32 30 31 30 30 31 29 30 30 27 29 30 30 32 34 34 31 30 30 28 27 27 23 20 19
23 24 25 28 32 37 42 45 49 50 48 46 45 48 47 45 44 39 34 31 29 30 27 29 27 24 23 23 22 23 25 25 27 31 33 34 32 29 27 26 26 24 23
25 26 30 35 41 43 48 53 50 42 39 40 41 42 42 42 44 41 39 36 28 24 26 25 19 22 24 25 26 26 28 29 30 32 32 31 30 28 26 26 27 25 26
27 32 39 43 46 48 50 39 36 35 36 37 37 36 35 36 43 44 43 40 34 28 24 25 23 22 20 24 24 25 25 25 26 29 30 27 26 26 24 22 24 27 26
33 38 42 46 45 39 35 34 35 36 37 36 35 37 37 33 41 30 38 39 35 34 34 30 25 22 21 21 22 24 26 25 26 28 29 28 26 25 23 24 25 28 28
37 39 41 36 30 29 30 31 33 33 30 32 35 35 31 32 32 36 28 30 33 26 24 27 29 24 24 25 27 28 30 30 27 23 24 27 28 25 26 27 27 32 33
38 36 28 26 25 27 30 30 32 29 29 32 33 27 24 23 25 25 31 30 18 23 20 20 22 24 26 27 29 32 34 34 36 29 27 28 26 25 24 25 25 33 30
33 25 22 20 22 24 27 28 28 26 25 26 23 18 16 17 17 19 16 24 27 14 13 15 17 19 22 24 23 21 23 24 24 27 25 25 26 25 24 27 33 29 29
Wind_Direction
268 238 243 266 260 269 272 278 266 266 266 269 273 276 282 285 290 289 251 258 253 261 264 270 269 267 265 265 266 261 259 270 275 283 293 291 294 298 277 279 280 296 308
214 228 250 261 266 265 273 285 284 281 275 270 279 282 277 301 315 261 230 272 283 272 269 267 270 270 272 270 264 258 259 260 266 278 287 295 286 294 284 280 276 279 294
235 230 255 258 258 260 267 275 271 267 271 273 280 282 280 292 250 220 257 295 292 297 286 280 277 273 273 268 267 262 252 252 261 268 280 290 284 284 283 275 281 270 278
257 273 266 256 265 262 269 274 262 256 266 276 281 278 285 284 276 282 277 276 269 294 291 289 290 280 278 280 270 267 262 256 258 267 277 283 282 275 275 271 283 278 276
263 270 271 261 262 270 274 273 264 264 272 274 276 270 271 278 283 284 282 273 276 286 290 291 283 276 278 280 275 270 263 266 255 260 269 275 277 268 272 282 278 280 272
259 257 263 255 258 269 270 269 273 269 270 277 288 283 270 279 285 284 286 279 280 288 287 286 282 279 282 267 272 261 257 250 257 253 261 264 270 276 275 276 274 279 285
256 273 279 287 281 276 275 267 261 267 273 274 278 279 283 287 287 283 277 276 284 298 303 317 280 267 268 266 270 262 254 257 265 263 258 258 264 264 269 264 270 278 283
238 248 274 276 286 293 292 283 269 270 274 279 280 281 283 282 290 282 272 262 260 294 306 326 308 275 265 273 284 277 269 261 261 263 266 263 257 254 258 259 267 270 277
228 237 251 253 266 273 271 275 270 272 285 288 287 277 277 281 282 272 254 241 275 295 311 321 306 280 328 275 264 275 282 272 265 268 278 273 273 261 259 250 250 258 269
221 260 270 277 278 271 272 267 267 269 273 277 281 280 279 279 275 261 264 270 277 284 292 298 291 274 283 257 267 301 305 284 264 280 263 259 279 282 269 262 263 259 255
308 309 312 309 305 300 293 288 285 281 277 275 274 274 273 271 268 263 265 274 277 281 284 286 287 284 278 268 256 254 250 264 270 274 269 263 257 264 264 283 269 263 255
315 312 310 309 306 302 296 293 291 286 280 277 278 277 274 271 271 269 268 269 273 277 275 278 284 289 279 270 263 256 260 295 306 295 289 290 290 279 273 275 286 258 262
307 307 308 308 308 305 302 299 295 290 288 285 282 279 276 275 274 270 266 268 270 270 269 270 274 279 279 272 269 266 252 271 288 304 314 316 302 293 281 274 273 261 264
309 311 313 312 308 304 302 299 299 298 295 291 286 282 280 277 274 274 276 278 269 269 268 267 268 266 269 270 266 264 260 260 271 295 311 312 313 305 289 282 277 275 261
308 307 304 300 299 298 295 294 294 293 292 293 298 297 293 286 279 278 280 281 277 278 274 265 266 266 269 265 261 262 255 256 263 292 307 309 309 310 300 291 281 275 266
299 297 294 292 293 293 293 294 289 286 285 284 285 286 290 283 286 282 274 273 279 275 269 265 264 264 265 267 267 258 252 251 254 283 295 301 301 305 301 287 287 284 276
293 291 292 294 295 295 294 291 293 292 288 286 287 288 284 280 280 274 277 274 268 268 268 270 268 265 263 264 268 269 254 250 251 280 285 289 293 292 296 284 284 283 275
307 309 307 305 303 303 304 303 300 297 295 294 292 292 289 286 283 275 276 271 264 259 264 271 270 271 263 260 262 266 265 256 254 263 274 277 281 283 285 278 279 276 277
303 302 301 300 301 300 305 305 302 299 294 292 292 288 286 285 283 281 274 267 266 263 264 266 271 264 264 262 256 255 256 256 257 256 259 265 269 272 276 273 266 263 255
300 301 303 304 302 303 306 306 304 300 295 290 285 284 284 287 283 276 271 269 271 263 259 263 265 264 254 257 256 257 258 258 255 251 252 256 260 263 264 269 253 249 246
306 306 305 304 307 306 306 304 300 292 284 279 276 277 277 275 276 275 271 264 267 261 261 263 264 265 264 263 260 259 255 254 248 245 247 250 254 255 261 266 240 242 244
305 306 309 308 308 306 306 306 302 300 296 292 290 287 282 270 262 264 264 266 260 260 264 268 258 259 272 269 260 260 257 260 262 258 252 245 246 248 261 256 239 234 236
310 312 312 309 307 308 312 313 309 304 299 295 294 291 286 270 258 267 259 261 263 261 256 259 253 264 268 266 259 260 263 266 271 265 259 246 243 248 253 249 238 224 218
316 314 316 316 319 321 320 321 321 314 308 307 306 298 285 274 261 255 262 258 257 259 255 249 255 261 262 260 263 266 266 267 271 268 257 245 247 249 250 243 235 217 210
320 321 323 323 327 328 329 326 328 324 322 320 309 300 287 274 268 269 252 241 238 243 246 238 245 255 261 260 263 267 270 268 262 254 258 254 248 248 241 230 220 193 195
333 330 328 331 336 341 344 340 338 332 329 329 325 310 291 276 267 258 262 244 235 224 227 240 252 261 264 267 271 274 276 264 251 244 243 241 244 235 221 193 181 180 177
Height
1544 1548 1553 1557 1558 1559 1558 1558 1556 1560 1561 1559 1558 1556 1556 1553 1548 1542 1547 1550 1552 1553 1554 1555 1556 1555 1554 1554 1554 1552 1552 1551 1550 1550 1550 1550 1548 1548 1548 1548 1548 1549 1549
1544 1549 1551 1554 1553 1553 1554 1553 1554 1554 1555 1555 1555 1552 1551 1549 1543 1541 1545 1548 1546 1547 1547 1548 1548 1550 1549 1548 1548 1547 1546 1545 1545 1543 1544 1545 1545 1545 1544 1544 1545 1546 1546
1544 1547 1546 1545 1546 1549 1552 1551 1552 1551 1552 1552 1549 1548 1549 1549 1546 1545 1545 1543 1540 1543 1544 1543 1542 1543 1542 1542 1543 1541 1539 1540 1539 1539 1538 1540 1540 1540 1540 1541 1542 1543 1543
1540 1541 1541 1541 1541 1544 1547 1547 1546 1547 1547 1548 1547 1546 1545 1546 1545 1544 1542 1540 1539 1540 1540 1539 1538 1539 1537 1537 1536 1538 1537 1535 1536 1536 1535 1535 1536 1537 1537 1538 1539 1539 1540
1539 1537 1536 1536 1540 1541 1542 1542 1542 1543 1543 1544 1543 1541 1542 1542 1541 1540 1540 1539 1537 1535 1536 1535 1534 1532 1531 1530 1531 1532 1534 1531 1531 1530 1530 1531 1531 1532 1533 1535 1536 1537 1537
1534 1534 1534 1535 1536 1536 1538 1540 1538 1538 1539 1538 1537 1537 1537 1536 1536 1535 1534 1533 1532 1529 1529 1528 1528 1527 1524 1523 1526 1526 1528 1527 1524 1523 1523 1525 1526 1528 1530 1531 1532 1533 1534
1533 1532 1533 1534 1534 1536 1536 1534 1534 1535 1535 1534 1533 1533 1532 1530 1529 1529 1530 1528 1526 1526 1524 1522 1520 1520 1518 1519 1522 1522 1522 1518 1517 1518 1518 1520 1521 1523 1525 1526 1527 1528 1530
1533 1534 1534 1537 1535 1534 1533 1530 1531 1531 1530 1529 1529 1528 1528 1527 1526 1526 1524 1524 1524 1524 1522 1520 1515 1515 1514 1516 1519 1519 1518 1515 1514 1514 1514 1515 1516 1518 1518 1521 1522 1522 1524
1532 1532 1532 1531 1530 1530 1529 1527 1528 1528 1526 1524 1523 1522 1522 1521 1523 1522 1521 1521 1520 1519 1519 1517 1515 1514 1514 1515 1515 1514 1516 1514 1509 1509 1509 1509 1510 1512 1513 1514 1515 1517 1516
1531 1530 1530 1529 1528 1527 1526 1524 1524 1522 1521 1519 1517 1517 1516 1514 1516 1517 1517 1516 1514 1514 1515 1515 1513 1512 1511 1512 1512 1510 1507 1507 1506 1505 1504 1505 1504 1506 1507 1508 1510 1508 1511
1529 1529 1528 1526 1525 1523 1522 1520 1518 1516 1514 1513 1512 1512 1511 1510 1509 1510 1511 1510 1509 1508 1507 1507 1509 1508 1507 1506 1506 1506 1504 1505 1501 1498 1500 1499 1500 1499 1501 1502 1503 1504 1504
1524 1524 1523 1521 1519 1517 1515 1512 1511 1509 1507 1506 1504 1502 1503 1503 1503 1503 1503 1502 1503 1502 1501 1501 1500 1502 1502 1502 1502 1500 1499 1497 1495 1493 1492 1491 1492 1495 1496 1496 1496 1499 1500
1519 1517 1516 1514 1512 1509 1507 1505 1503 1501 1499 1496 1495 1493 1492 1493 1492 1493 1494 1494 1495 1494 1494 1493 1493 1492 1493 1494 1495 1495 1492 1491 1491 1489 1486 1485 1483 1484 1487 1488 1489 1491 1492
1512 1511 1509 1507 1505 1503 1501 1498 1495 1493 1491 1488 1486 1484 1483 1482 1482 1482 1482 1483 1484 1483 1484 1484 1483 1483 1483 1484 1485 1487 1486 1485 1484 1482 1482 1482 1480 1479 1478 1479 1479 1481 1483
1505 1503 1501 1499 1497 1494 1493 1491 1488 1486 1484 1481 1478 1476 1474 1471 1471 1472 1473 1473 1474 1474 1474 1472 1472 1473 1473 1474 1475 1476 1478 1478 1477 1477 1476 1476 1475 1474 1472 1472 1473 1473 1474
1497 1494 1492 1490 1488 1486 1483 1479 1479 1477 1475 1474 1471 1469 1465 1463 1461 1461 1462 1463 1464 1464 1461 1462 1462 1464 1464 1465 1466 1467 1468 1469 1470 1470 1471 1471 1470 1469 1467 1466 1466 1466 1467
1488 1486 1484 1482 1479 1476 1473 1470 1466 1464 1463 1461 1459 1457 1454 1452 1451 1451 1451 1451 1452 1451 1450 1451 1451 1453 1455 1456 1457 1458 1458 1461 1462 1464 1464 1464 1464 1463 1462 1461 1460 1459 1459
1482 1480 1477 1475 1472 1469 1466 1463 1459 1454 1449 1446 1445 1444 1443 1442 1441 1440 1440 1438 1438 1438 1440 1441 1441 1443 1443 1445 1446 1448 1450 1451 1453 1455 1456 1456 1456 1456 1455 1454 1455 1454 1454
1477 1474 1472 1469 1467 1463 1460 1456 1451 1446 1441 1436 1434 1431 1431 1430 1429 1428 1428 1426 1426 1427 1429 1431 1431 1432 1434 1435 1436 1437 1439 1440 1443 1445 1446 1447 1447 1448 1447 1447 1448 1449 1451
1471 1469 1466 1463 1459 1454 1450 1444 1438 1433 1428 1424 1421 1418 1418 1417 1414 1415 1416 1416 1416 1416 1419 1420 1422 1422 1423 1425 1427 1428 1429 1431 1432 1434 1435 1436 1438 1439 1439 1439 1441 1442 1443
1465 1462 1458 1454 1449 1443 1437 1430 1424 1418 1414 1411 1407 1406 1406 1404 1400 1400 1401 1404 1406 1407 1409 1411 1412 1414 1415 1416 1418 1419 1420 1420 1421 1423 1424 1426 1428 1428 1430 1430 1432 1434 1438
1460 1455 1450 1444 1437 1430 1423 1416 1411 1406 1401 1397 1393 1391 1390 1389 1387 1388 1389 1391 1394 1398 1400 1402 1403 1405 1406 1407 1408 1409 1409 1410 1412 1413 1414 1415 1417 1418 1420 1421 1423 1426 1430
1453 1446 1439 1432 1424 1417 1411 1406 1400 1395 1390 1385 1381 1377 1375 1374 1374 1374 1376 1380 1384 1386 1390 1393 1395 1396 1398 1399 1400 1401 1401 1401 1402 1403 1404 1406 1407 1409 1410 1412 1415 1419 1422
1444 1437 1428 1420 1414 1409 1404 1397 1391 1385 1379 1374 1368 1364 1361 1360 1361 1363 1366 1368 1373 1377 1380 1383 1386 1388 1390 1391 1392 1392 1392 1392 1393 1394 1395 1397 1399 1401 1401 1402 1405 1410 1414
1435 1426 1419 1414 1408 1403 1397 1390 1383 1376 1370 1364 1358 1353 1351 1351 1351 1352 1355 1360 1364 1368 1372 1376 1378 1380 1381 1382 1382 1382 1382 1382 1383 1385 1387 1389 1391 1391 1392 1395 1399 1405 1411
1426 1419 1414 1409 1404 1398 1392 1385 1378 1371 1366 1360 1353 1349 1346 1345 1345 1346 1347 1349 1355 1362 1367 1370 1371 1373 1373 1373 1373 1373 1372 1371 1372 1374 1378 1380 1382 1383 1385 1390 1396 1402 1409